Date String (YYYY-MM-DD hh:mm:ss) UTC,Instrument flags,Ambient pressure (hPa),Sample flow (lpm),Bypass flow (lpm),Sample temperature (°C),Ambient temperature (°C),ASC tube jacket temperature (°C),LED temperature (°C),Box temperature (°C),Sample RH (%),Span deviation,Mass concentration (μg/m³),Mass concentration (μg/m³),Mass concentration (μg/m³)
DateTimeUTC,F1_M11,P_M11,Q1_M11,Q2_M11,T1_M11,T2_M11,T3_M11,T4_M11,T5_M11,U1_M11,ZSPAN_M11,X2_M11,X0_M11,X1_M11
2022-09-18 01:00:00,,0821.9,5.00,0.00,29.7,27.0,00.0,38.4,31.3,21.8,0000.0,0004.80,0011.87,0004.02
2022-09-18 01:01:00,,0821.8,5.00,0.00,29.6,27.3,00.0,38.4,31.4,21.9,0000.0,0004.78,0010.81,0004.01
2022-09-18 01:02:00,,0821.8,4.99,0.00,29.6,27.7,00.0,38.4,31.4,22.0,0000.0,0004.75,0010.56,0004.00
2022-09-18 01:03:00,,0821.8,5.00,0.00,29.6,27.9,00.0,38.4,31.5,22.0,0000.0,0004.73,0010.64,0003.98
2022-09-18 01:04:00,,0821.9,4.99,0.00,29.7,28.1,00.0,38.4,31.5,21.9,0000.0,0004.66,0010.07,0003.95
2022-09-18 01:05:00,,0821.8,5.01,0.00,29.7,28.2,00.0,38.4,31.5,21.7,0000.0,0004.64,0009.89,0003.93
2022-09-18 01:06:00,,0821.8,4.99,0.00,29.7,28.4,00.0,38.4,31.6,21.6,0000.0,0004.65,0010.19,0003.92
2022-09-18 01:07:00,,0821.7,5.02,0.00,29.7,28.5,00.0,38.4,31.7,21.6,0000.0,0004.66,0010.30,0003.91
2022-09-18 01:08:00,,0821.7,4.99,0.00,29.8,28.6,00.0,38.4,31.7,21.4,0000.0,0004.67,0009.99,0003.91
2022-09-18 01:09:00,,0821.7,5.00,0.00,29.8,28.7,00.0,38.4,31.7,21.4,0000.0,0004.64,0009.91,0003.90
2022-09-18 01:10:00,,0821.7,5.01,0.00,29.8,28.7,00.0,38.5,31.7,21.1,0000.0,0004.61,0009.65,0003.90
2022-09-18 01:11:00,,0821.7,4.99,0.00,29.9,28.8,00.0,38.5,31.8,21.0,0000.0,0004.59,0009.65,0003.89
2022-09-18 01:12:00,,0821.7,5.01,0.00,29.9,28.9,00.0,38.5,31.9,21.1,0000.0,0004.62,0009.51,0003.91
2022-09-18 01:13:00,,0821.7,5.02,0.00,30.0,29.0,00.0,38.5,31.9,21.1,0000.0,0004.62,0009.04,0003.92
2022-09-18 01:14:00,,0821.8,4.99,0.00,30.0,28.6,00.0,38.6,31.9,21.0,0000.0,0004.64,0008.90,0003.92
2022-09-18 01:15:00,,0821.8,5.00,0.00,30.0,27.2,00.0,38.6,31.8,21.1,0000.0,0004.64,0008.91,0003.93
2022-09-18 01:16:00,,0821.7,5.00,0.00,29.9,26.8,00.0,38.5,31.8,21.3,0000.0,0004.63,0009.68,0003.92
2022-09-18 01:17:00,,0821.8,5.00,0.00,29.9,27.0,00.0,38.5,31.6,21.5,0000.0,0004.61,0009.81,0003.93
2022-09-18 01:18:00,,0821.8,4.99,0.00,29.8,27.3,00.0,38.5,31.5,21.7,0000.0,0004.61,0010.13,0003.94
2022-09-18 01:19:00,,0821.8,5.00,0.00,29.8,27.6,00.0,38.5,31.5,21.7,0000.0,0004.59,0010.20,0003.94
2022-09-18 01:20:00,,0821.8,5.00,0.00,29.8,27.8,00.0,38.5,31.6,21.4,0000.0,0004.62,0010.16,0003.94
2022-09-18 01:21:00,,0821.8,5.00,0.00,29.8,28.1,00.0,38.5,31.6,21.5,0000.0,0004.62,0009.94,0003.94
2022-09-18 01:22:00,,0821.8,5.01,0.00,29.8,28.3,00.0,38.5,31.7,21.5,0000.0,0004.63,0010.00,0003.93
2022-09-18 01:23:00,,0821.8,5.00,0.00,29.8,28.4,00.0,38.5,31.7,21.7,0000.0,0004.60,0010.58,0003.92
2022-09-18 01:24:00,,0821.8,5.00,0.00,29.9,28.5,00.0,38.5,31.7,21.7,0000.0,0004.62,0010.97,0003.92
2022-09-18 01:25:00,,0821.9,5.00,0.00,29.9,28.6,00.0,38.5,31.8,21.7,0000.0,0004.60,0011.14,0003.92
2022-09-18 01:26:00,,0821.9,5.01,0.00,29.9,28.7,00.0,38.6,31.8,21.7,0000.0,0004.60,0011.67,0003.92
2022-09-18 01:27:00,,0822.0,4.99,0.00,30.0,28.8,00.0,38.6,31.9,21.7,0000.0,0004.59,0010.83,0003.93
2022-09-18 01:28:00,,0822.1,5.00,0.00,30.0,28.9,00.0,38.6,31.9,21.5,0000.0,0004.61,0010.41,0003.94
2022-09-18 01:29:00,,0822.1,5.00,0.00,30.0,29.0,00.0,38.6,32.0,21.8,0000.0,0004.62,0009.95,0003.95
2022-09-18 01:30:00,,0822.1,5.00,0.00,30.0,28.6,00.0,38.6,32.0,22.0,0000.0,0004.67,0009.91,0003.97
2022-09-18 01:31:00,,0822.1,5.00,0.00,30.0,27.2,00.0,38.6,31.9,22.1,0000.0,0004.65,0009.73,0003.98
2022-09-18 01:32:00,,0822.2,5.01,0.00,30.0,26.8,00.0,38.6,31.8,22.1,0000.0,0004.65,0011.07,0004.00
2022-09-18 01:33:00,,0822.2,5.00,0.00,29.9,27.0,00.0,38.6,31.6,22.0,0000.0,0004.66,0011.61,0004.02
2022-09-18 01:34:00,,0822.2,4.99,0.00,29.9,27.3,00.0,38.6,31.6,22.0,0000.0,0004.71,0011.58,0004.04
2022-09-18 01:35:00,,0822.2,5.00,0.00,29.8,27.6,00.0,38.5,31.6,21.9,0000.0,0004.69,0011.13,0004.05
2022-09-18 01:36:00,,0822.2,5.01,0.00,29.8,27.9,00.0,38.5,31.6,22.0,0000.0,0004.69,0011.37,0004.06
2022-09-18 01:37:00,,0822.2,5.00,0.00,29.8,28.1,00.0,38.5,31.7,22.0,0000.0,0004.70,0011.07,0004.08
2022-09-18 01:38:00,,0822.1,4.99,0.00,29.9,28.3,00.0,38.5,31.7,22.1,0000.0,0004.73,0011.19,0004.09
2022-09-18 01:39:00,,0822.2,5.01,0.00,29.9,28.4,00.0,38.6,31.8,21.7,0000.0,0004.73,0011.28,0004.09
2022-09-18 01:40:00,,0822.2,4.99,0.00,29.9,28.6,00.0,38.6,31.8,21.4,0000.0,0004.77,0011.39,0004.10
2022-09-18 01:41:00,,0822.2,5.01,0.00,29.9,28.7,00.0,38.6,31.8,21.2,0000.0,0004.74,0012.26,0004.09
2022-09-18 01:42:00,,0822.2,5.00,0.00,29.9,28.7,00.0,38.6,31.9,21.2,0000.0,0004.78,0012.83,0004.09
2022-09-18 01:43:00,,0822.2,5.01,0.00,30.0,28.8,00.0,38.6,31.9,21.3,0000.0,0004.77,0011.99,0004.09
2022-09-18 01:44:00,,0822.2,5.00,0.00,30.0,28.9,00.0,38.6,31.9,21.5,0000.0,0004.81,0011.58,0004.09
2022-09-18 01:45:00,,0822.3,5.00,0.00,30.0,28.9,00.0,38.7,32.0,21.3,0000.0,0004.78,0011.78,0004.08
2022-09-18 01:46:00,,0822.3,5.01,0.00,30.1,27.7,00.0,38.7,31.9,21.3,0000.0,0004.78,0012.00,0004.09
2022-09-18 01:47:00,,0822.3,4.99,0.00,30.0,26.9,00.0,38.6,31.8,21.4,0000.0,0004.80,0012.32,0004.10
2022-09-18 01:48:00,,0822.3,4.99,0.00,30.0,26.9,00.0,38.6,31.8,21.5,0000.0,0004.84,0012.07,0004.11
2022-09-18 01:49:00,,0822.3,5.00,0.00,29.9,27.1,00.0,38.6,31.6,21.6,0000.0,0004.87,0012.51,0004.11
2022-09-18 01:50:00,,0822.3,5.01,0.00,29.9,27.4,00.0,38.6,31.6,21.8,0000.0,0004.89,0013.02,0004.12
2022-09-18 01:51:00,,0822.3,5.01,0.00,29.8,27.7,00.0,38.5,31.6,21.9,0000.0,0004.84,0013.33,0004.11
2022-09-18 01:52:00,,0822.3,5.00,0.00,29.8,28.0,00.0,38.5,31.6,22.0,0000.0,0004.84,0012.70,0004.11
2022-09-18 01:53:00,,0822.3,5.00,0.00,29.9,28.2,00.0,38.5,31.7,21.9,0000.0,0004.78,0012.03,0004.11
2022-09-18 01:54:00,,0822.3,5.00,0.00,29.9,28.3,00.0,38.6,31.7,21.8,0000.0,0004.76,0011.69,0004.11
2022-09-18 01:55:00,,0822.3,5.00,0.00,29.9,28.4,00.0,38.6,31.7,21.6,0000.0,0004.71,0012.03,0004.10
2022-09-18 01:56:00,,0822.3,4.99,0.00,29.9,28.6,00.0,38.6,31.8,21.7,0000.0,0004.69,0011.47,0004.10
2022-09-18 01:57:00,,0822.2,5.01,0.00,29.9,28.7,00.0,38.6,31.8,21.6,0000.0,0004.68,0011.19,0004.10
2022-09-18 01:58:00,,0822.2,4.98,0.00,30.0,28.8,00.0,38.6,31.9,21.3,0000.0,0004.64,0010.62,0004.07
2022-09-18 01:59:00,,0822.2,5.01,0.00,30.0,28.8,00.0,38.6,31.9,21.4,0000.0,0004.59,0010.34,0004.05
